CZ-3C DEB, 40817

Orbit data source: Space-Track

CZ-3C DEB, 40817 is space debris in HEO originally from a launch on Sun, 31 Oct 2010 UTC launched from the Xichang Space Center, China (XSC). Debris objects in space refer to the collection of defunct objects orbiting the Earth. Examples of debris include non-operational satellites, rocket bodies, and fragments generated from explosions, collisions, or faulty payload assembly.

Loading next visibility...
Identifier
40817, 2010-057AJ
Orbit
HEO
Last TLE update
4 days ago
Origin
Manufacturer
CALT
Mission
Spacecraft
Bus & Motor
Unknown
Mass
Unknown
Launch date (UTC)
2010-10-31 (15 years ago)
Launch vehicle
Unknown
Launch site
Xichang Space Center, China (XSC)
Object type
Payload
Rocket body
Debris
Shape & HBR
Unknown
Radar Cross Section
Medium (>0.1 m² and <1 m²)

Expand to show TLE details & history

TLE from 4 days ago
0 CZ-3C DEB
1 40817U 10057AJ  25125.62543158  .00000776  00000-0  21655-1 0  9992
2 40817  19.8500 297.4101 7163955 184.9947 159.1152  2.19971442 40329
Epoch: 2025-05-05T15:00Z
Definitive object data (Epoch: 2025-05-05T15:00:37.288Z)
Latitude
-0.0001°
Longitude
-151.5005°
Altitude
36,058.338 km
Speed
1.681 km/s
True Right ascension
19h 49m 33s
True Declination
0° 00' 00"
Sunlit
Object was in daylight at TLE epoch
Visualization TLE readout
Latitude
-0.48464°
Longitude
-154.05917°
Altitude
35,277.332 km
Speed
1.783 km/s
Apparent Right ascension
20h 06m 20s
Apparent Declination
-6° 04' 55"
Sunlit
Object is in daylight
Visualization observer readout
Local Sidereal Time
13:59:33
Azimuth
93.593° ESE
Elevation
-5.193°
Doppler factor
1
Orbital elements
Apogee altitude
36,494.805 km
Perigee altitude
705.871 km
Semi-major axis
24,978.475 km
Eccentricity
0.7163955
Inclination
19.85°
RAAN
297.4101°
Arg. of periapsis
184.9947°
True anomaly
175.02257°
Mean anomaly
159.1152°
Eccentric anomaly
167.79372°
Mean motion
0.54979 °/min
BSTAR
0.021655
Orbital period
654.8 mins
Loading maneuver chart data...
Loading SW <> Apogee altitude chart data...
Loading historical data...
Loading historical data...
Loading historical data...
Loading historical data...
Loading historical data...
Loading historical data...
Loading historical data...

CZ-3C DEB Visibility forecast

Observer location: undefined°, undefined°

Span
Click to sort rows by Start time (UTC) header in descending order
Start Az.
Max El. time (UTC)
Max El. Az.
Max El.
End time (UTC)
End Az.
207 mins2025-05-09 07:53:49.544Z99.491° ESE2025-05-09 10:12:49.544Z101.449° ESE19.965°2025-05-09 11:20:49.544Z90.319° ESE
|